Location: Wangen+im+Allg�u
(47.7098°N, 9.8383°E)
Time: 09:38:09
(UTC+01:00)

ISS - Pass Details

Date: 05 January 2018
Orbit: 401 x 406 km, 51.6° (Epoch: 17 January)

Event Time Altitude Azimuth Distance (km) Brightness Sun altitude
Exits shadow 06:05:54 41° 12° (NNE) 603 -3.0 -19.8°
Drops below altitude 10° 06:08:43 10° 65° (ENE) 1,469 -0.3 -19.3°
Sets 06:10:52 0° 73° (ENE) 2,331 1.1 -19.0°
